#timestamp,LO_Frequency,Hit,StdDev 
1641848415.3,286046998.2,N
1641848435.1,286046998.4,N
1641848436.0,286046998.4,N
1641848455.8,286046999.6,N
1641848475.7,286046997.3,N
1641848495.5,286046997.1,N
1641848515.3,286046997.8,N
1641848535.2,286046997.0,Y
1641848555.0,286046999.3,P
1641848555.9,286046999.3,N
1641848575.8,286046998.3,P
1641848595.6,286046998.5,N
1641848615.4,286046998.8,N
1641848635.3,286046998.3,Y
1641848655.1,286047000.0,P
1641848675.9,286047002.4,P
1641848695.7,286047000.9,N
1641848715.5,286047000.5,N
1641848735.4,286047000.4,N
1641848755.2,286047001.0,N
1641848775.0,286047000.0,N
1641848775.9,286047000.0,N
1641848795.8,286047000.6,N
1641848815.6,286047000.9,N
1641848835.5,286046998.7,N
1641848855.3,286046998.3,N
1641848875.1,286046999.1,N
1641848895.9,286046999.6,N
1641848915.7,286046998.9,N
1641848935.6,286046998.2,N
1641848955.4,286047001.0,N
1641848975.2,286047000.9,N
1641848995.1,286047001.2,N
1641848996.0,286047001.2,N
1641849015.8,286047000.7,N
1641849035.6,286047002.8,N
1641849055.5,286046998.9,N
1641849075.3,286046999.5,N
1641849095.2,286046999.0,N
1641849115.9,286046998.9,N
1641849135.7,286046999.5,N
1641849155.6,286046999.2,N
1641849175.4,286046996.6,N
1641849195.2,286046996.6,N
1641849215.1,286046996.6,N
1641849216.0,286046996.6,N
1641849235.8,286046998.4,N
1641849255.7,286046998.9,N
1641849275.5,286047000.3,N
1641849295.3,286047000.7,N
1641849315.2,286047000.3,N
1641849335.0,286047000.0,N
1641849335.9,286047000.0,N
1641849355.8,286046999.9,N
1641849375.6,286046999.9,N
1641849395.4,286047000.0,N
1641849415.3,286047000.4,N
1641849435.1,286047000.4,N
1641849455.9,286047002.8,N
1641849475.7,286047002.1,N
1641849495.5,286046999.7,N
1641849515.4,286047002.1,N
1641849535.2,286046999.9,N
1641849555.0,286047000.5,N
1641849555.9,286047000.5,N
1641849575.8,286046998.4,N
1641849595.6,286046999.6,N
1641849615.5,286046998.3,N
1641849635.3,286047000.6,N
1641849655.1,286047000.1,N
1641849675.9,286047002.5,N
1641849695.7,286047001.8,N
1641849715.5,286047004.4,N
1641849735.4,286047001.4,N
1641849755.2,286047001.6,N
1641849775.1,286046999.9,N
1641849776.0,286046999.9,N
1641849795.8,286046999.9,N
1641849815.6,286046998.3,N
1641849835.5,286047000.0,N
1641849855.3,286046998.6,N
1641849875.1,286047000.0,N
1641849895.9,286047000.2,N
1641849915.7,286047000.0,N
1641849935.6,286047002.4,N
1641849955.4,286047002.4,N
1641849975.2,286046999.8,N
1641849995.1,286047000.0,N
1641849996.0,286047000.0,N
1641850015.8,286047000.2,N
1641850035.6,286047000.1,N
1641850055.5,286047002.8,N
1641850075.3,286047004.2,Y
1641850095.2,286047003.6,P
1641850115.0,286047001.8,N
1641850115.9,286047001.8,N
1641850135.7,286047003.2,N
1641850155.6,286047004.4,Y
1641850175.4,286047000.0,P
1641850195.3,286047000.3,N
1641850215.1,286047002.8,N
1641850235.8,286047000.5,N
1641850255.7,286046998.3,N
1641850275.5,286046999.0,N
1641850295.4,286046998.2,N
1641850315.2,286046998.1,N
1641850335.0,286047000.8,N
1641850335.9,286047000.8,N
1641850355.8,286046999.7,N
1641850375.6,286046999.7,N
1641850395.4,286047002.5,N
1641850415.3,286047002.6,N
1641850435.1,286047002.1,N
1641850455.9,286046999.7,N
1641850475.7,286047002.7,N
1641850495.5,286047001.7,N
1641850515.4,286047002.8,N
1641850535.2,286047002.3,N
1641850555.1,286046999.7,N
1641850556.0,286046999.7,N
1641850575.8,286047002.4,N
1641850595.2,286047002.8,N
1641850615.0,286047000.0,N
1641850615.9,286047000.0,N
1641850635.7,286046999.9,N
1641850655.6,286046999.9,N
1641850675.4,286047002.3,N
1641850695.3,286047004.4,N
1641850715.1,286047001.5,N
1641850716.0,286047001.5,N
1641850735.8,286047002.5,N
1641850755.7,286047002.5,N
1641850775.5,286047002.0,N
1641850795.4,286047001.5,N
1641850815.2,286047004.4,N
1641850835.0,286047001.7,N
1641850835.9,286047001.7,N
1641850855.8,286047002.0,N
1641850875.6,286047001.8,N
1641850895.4,286047004.3,Y
1641850915.3,286047000.0,P
1641850935.1,286046999.8,N
1641850955.9,286047000.9,N
1641850975.7,286047001.0,N
1641850995.5,286046999.9,N
1641851015.4,286047001.0,N
1641851035.2,286046998.1,N
1641851055.0,286046998.2,N
1641851055.9,286046998.2,N
1641851075.8,286047000.7,N
1641851095.6,286047000.3,N
1641851115.5,286047002.8,N
1641851135.3,286046999.8,N
1641851155.1,286047000.8,N
1641851175.9,286046998.3,N
1641851195.7,286046999.3,N
1641851215.5,286046998.4,N
1641851235.4,286046998.5,N
1641851255.2,286046998.7,N
1641851275.1,286046999.0,N
1641851276.0,286046999.0,N
1641851295.8,286046998.9,N
1641851315.6,286046998.8,N
1641851335.5,286046999.5,N
1641851355.3,286046999.0,N
1641851375.2,286047001.1,N
1641851395.9,286046999.9,N
1641851415.7,286047000.5,N
1641851435.6,286047000.4,N
1641851455.4,286047000.9,N
1641851475.2,286047001.0,N
1641851495.1,286046999.1,N
1641851496.0,286046999.1,N
1641851515.8,286046998.9,N
1641851535.7,286047001.2,N
1641851555.5,286046999.8,N
1641851575.3,286047002.8,N
1641851595.2,286047002.4,N
1641851615.0,286047002.5,N
1641851615.9,286047002.5,N
1641851635.8,286047002.3,N
1641851655.6,286047002.3,N
1641851675.4,286047001.3,N
1641851695.3,286047002.2,N
1641851715.1,286047002.0,N
1641851735.8,286047002.0,N
1641851755.7,286047002.4,N
1641851775.5,286047000.3,N
1641851795.4,286047000.0,N
1641851815.2,286047002.3,N
1641851835.0,286047001.5,N
1641851835.9,286047001.5,N
1641851855.8,286047002.5,N
1641851875.6,286047013.0,Y
1641851895.4,286047010.9,P
1641851915.3,286047011.7,N
1641851935.1,286047015.3,P
1641851955.9,286047013.5,N
1641851975.7,286047011.8,N
1641851995.5,286047008.5,N
